Find Starlink 11740

NORAD ID: 64382 Int'l Des: 2025-127 Owner: SPXS Country: US Constellation: starlink operational
又名: STARLINK-11740 [DTC] celestrak
LEOCIRCULAR

当前视图

正在加载3D地球...

About Starlink 11740

Starlink 11740 (NORAD 64382) is a starlink constellation satellite (v2 mini d2c) launched Jun 13, 2025 by SPXS of US. It operates in LEO, CIRCULAR orbit with a mass of 960.00 kg.

即将过境

Passes for default location (London). Set your location on the main map for personalized predictions.

高度历史

Loading altitude history...

两行轨道根数

1 64382U 25127N 26262.54069995 .00201330 00000-0 15318-2 0 9994
2 64382 42.9992 355.7466 0001405 337.0641 23.0164 15.70886762 73994
Epoch: Sep 19, 2026 • Age: 35 hours

当前状态

高度 367.0 km
远地点 / 近地点 N/A
速度 7.69 km/s
星下点 -40.60°S, 120.89°W
发射日期 Jun 13, 2025
运行时间 1.2 years
类型 internet

技术详情

分类 Payload
质量 960.00 kg
干质量 910.00 kg
长度 0.30 m
跨度 29.00 m
形状 ? Box + pan
制造商 SPXS
平台类型 Starlink V2MD
阶段状态 In Orbit
所有者/国家 SPXS/US

Most Searched